Temp
8 8 8 8 8 8 7 7 7 7 7 7 8 7 7 7 7 7 7 8 8 8 8 8 8 8 8 8 8 8 10 11 13 15 17 20 21 20 20 20 20 20 19 21 22 22 23 23 24 24 24 25 25 26 25 26 26 26 26 25 24 25 26 27 28 28 27 28 28 28 28 28 28 28 28 28 28 29 28 28 28 27 28 28 28 26 25 23
7 7 8 7 8 8 7 7 7 7 7 7 7 7 8 8 7 7 8 8 8 8 8 8 8 8 8 8 8 9 10 12 14 17 19 20 20 20 20 20 20 20 20 22 22 23 24 24 24 24 25 25 25 25 25 25 25 26 26 25 25 27 27 27 28 27 27 27 28 28 28 28 28 28 28 28 28 28 28 27 27 27 27 27 27 26 24 23
7 7 7 7 7 8 8 8 7 7 7 7 7 7 7 7 7 7 8 8 8 8 8 8 8 8 8 8 9 9 10 13 17 20 20 20 19 20 20 20 20 20 21 22 23 24 24 24 25 24 25 25 25 25 25 25 25 26 26 25 26 28 27 27 27 27 27 27 27 27 28 28 28 28 27 28 28 28 28 28 27 27 26 26 26 26 25 23
7 7 7 7 8 8 8 8 8 8 8 8 8 7 7 7 7 8 8 8 8 8 8 8 8 8 8 8 9 9 11 16 20 22 21 20 20 20 19 20 20 20 21 22 23 23 24 24 25 25 25 25 25 25 25 25 25 26 25 26 27 27 26 27 27 27 27 27 27 27 28 28 28 28 27 28 28 28 29 29 28 28 27 26 25 25 25 23
7 7 7 8 8 8 8 8 8 8 8 8 8 8 8 7 7 8 8 8 8 8 8 8 8 8 8 9 10 10 13 19 22 22 20 20 20 20 19 19 20 20 21 22 23 23 23 24 25 24 25 25 25 25 25 26 25 25 25 26 27 27 26 27 28 27 27 27 27 27 28 28 28 28 27 28 28 29 29 29 29 29 28 27 26 25 25 24
7 7 8 8 8 8 8 8 8 8 8 8 8 8 8 8 8 8 7 7 7 7 8 8 8 8 9 11 11 10 16 21 22 21 20 21 21 20 19 20 20 20 21 22 23 23 24 24 24 24 25 25 25 25 26 26 25 25 26 27 26 26 26 27 27 27 27 27 27 27 28 28 28 28 28 28 28 29 29 29 28 28 28 27 26 25 24 24
7 7 8 8 8 8 8 8 8 8 8 8 8 8 8 8 8 7 7 7 7 7 8 7 8 9 11 12 11 13 19 22 21 20 20 20 20 19 20 20 20 21 22 23 24 24 24 24 24 25 25 25 25 25 25 25 25 25 26 26 26 26 26 27 27 27 27 27 27 28 28 27 28 28 28 28 28 28 28 28 28 28 28 27 26 25 24 24
7 7 7 8 8 8 8 8 8 8 8 8 8 8 8 8 8 7 7 7 7 7 8 8 9 11 11 11 14 19 22 22 21 19 20 20 20 20 20 20 20 21 23 24 24 24 24 24 25 25 25 25 25 25 25 25 25 25 26 26 26 26 27 27 27 27 27 27 27 28 27 28 28 28 28 28 28 28 28 28 27 27 27 26 25 24 24 24
7 7 7 8 8 8 8 8 8 8 8 8 8 8 8 8 8 8 7 7 7 8 9 10 11 12 10 11 16 22 22 21 20 19 19 20 20 20 20 20 21 22 23 23 24 24 24 25 25 25 25 25 25 25 25 25 25 25 26 26 26 26 27 27 27 27 27 27 27 27 27 28 27 27 28 28 27 27 28 28 27 27 26 25 25 24 24 23
7 7 7 7 8 9 9 9 8 8 8 8 8 8 8 8 8 7 7 8 8 9 11 12 13 12 11 13 18 22 21 20 20 19 19 19 19 20 20 21 21 22 23 23 24 24 25 25 25 25 25 25 25 25 25 25 25 26 26 26 26 27 27 27 27 27 27 27 27 27 28 28 27 27 28 27 27 27 28 28 27 27 26 25 25 24 24 23
7 7 8 9 10 11 12 12 10 9 8 8 8 8 8 8 8 8 9 11 11 11 12 12 12 12 12 15 20 22 21 20 20 20 20 19 19 20 21 21 22 23 24 24 24 24 25 25 25 25 25 25 25 25 25 25 26 26 26 26 26 27 27 27 27 27 27 27 27 28 28 28 28 28 28 27 26 27 27 27 27 27 26 25 25 24 24 24
7 7 9 11 12 13 14 13 12 10 9 8 8 8 8 8 8 8 11 12 13 13 13 12 11 11 12 17 21 22 20 20 20 20 20 19 20 21 21 21 22 23 23 24 24 24 24 24 24 25 25 25 25 25 25 26 26 26 26 26 26 27 27 27 27 27 28 27 27 28 27 27 28 28 27 26 26 27 27 27 27 27 26 25 25 24 24 24
7 8 11 13 14 14 14 14 14 13 11 10 9 9 9 9 9 9 10 12 13 13 12 12 11 9 13 20 22 20 20 20 20 20 19 19 20 21 20 21 21 22 23 24 24 23 23 23 24 24 25 25 25 25 25 26 26 26 26 26 26 26 26 27 27 27 28 27 27 27 24 26 29 28 27 26 26 27 27 27 27 27 27 26 25 24 24 25
7 10 13 15 15 15 15 15 14 14 13 13 11 11 11 11 11 11 11 11 13 13 12 12 10 9 15 21 21 20 20 19 19 20 20 20 21 21 21 21 21 21 22 22 23 22 22 23 23 24 25 25 25 25 25 26 26 26 26 26 26 24 24 27 27 27 28 26 28 28 23 25 29 27 26 26 26 27 27 28 27 27 27 26 25 25 25 25
9 12 15 15 15 15 15 15 15 14 14 14 13 13 12 12 12 12 12 12 12 13 12 11 10 12 19 22 21 20 20 19 20 21 21 21 22 23 22 21 21 21 21 22 22 22 22 23 23 24 25 25 25 25 25 26 26 26 24 23 25 24 24 27 27 27 27 26 28 27 24 26 28 27 26 26 26 27 27 28 27 27 27 26 26 26 26 26
11 14 15 15 15 15 15 15 15 15 14 14 14 14 13 13 13 13 13 12 12 13 12 12 12 14 20 23 20 20 21 21 22 21 21 21 23 24 23 22 22 22 21 21 21 22 23 23 24 24 25 25 25 25 25 25 24 26 24 22 23 24 24 25 26 27 27 27 28 27 25 27 28 27 27 26 26 27 27 28 27 27 26 26 26 26 26 26
12 15 15 15 15 16 16 16 16 15 15 14 14 14 13 14 14 13 13 12 12 11 11 13 15 15 20 22 21 21 22 23 22 21 21 21 22 23 23 23 23 23 22 22 22 22 23 23 23 24 25 25 25 25 24 22 22 24 24 23 23 24 24 24 25 27 27 27 27 27 27 27 27 27 27 26 26 26 27 27 27 27 26 26 26 26 26 26
12 15 15 15 15 16 16 16 16 15 15 14 14 14 14 14 13 12 12 11 11 11 11 13 15 17 21 22 22 23 23 22 21 21 21 21 21 23 23 24 24 24 23 23 23 23 23 24 24 24 25 25 25 25 22 21 22 22 23 23 23 24 24 24 25 26 27 27 27 26 27 27 27 28 27 27 27 26 27 27 27 27 26 26 26 27 27 27
13 14 15 15 15 16 16 16 15 15 14 14 13 13 13 12 12 11 12 12 14 16 17 18 18 20 22 22 23 23 22 22 21 22 22 21 21 22 23 24 24 24 23 24 23 24 24 24 24 24 24 24 24 25 23 23 24 24 24 23 23 23 23 25 25 25 26 26 27 26 26 27 27 27 27 26 26 26 26 27 26 26 26 26 26 27 27 27
13 14 15 15 15 15 16 15 15 15 14 13 11 12 14 15 16 16 15 16 18 21 21 21 21 22 22 23 23 23 22 22 22 23 23 22 22 23 24 24 24 24 24 24 24 23 23 23 23 24 24 24 23 23 23 24 24 24 24 24 24 23 23 26 26 25 26 25 26 26 26 26 27 27 27 26 25 25 26 26 25 26 26 26 26 26 27 27
14 14 15 15 15 15 15 15 15 15 15 13 11 14 18 19 19 20 19 19 21 22 21 21 21 21 22 23 23 23 23 23 24 24 23 22 24 24 24 24 23 24 24 24 23 23 23 23 23 24 24 23 23 23 23 23 23 24 24 23 23 23 24 26 25 25 25 24 25 26 25 26 26 26 27 26 25 26 26 26 25 26 26 26 26 26 26 26
14 15 15 15 15 15 15 15 15 14 15 13 13 18 21 19 18 18 19 20 22 21 21 21 20 21 22 22 22 22 22 24 24 24 23 22 24 24 24 24 24 24 23 23 23 22 22 23 24 24 23 22 22 22 22 23 23 23 24 23 23 24 25 25 25 25 25 24 25 26 25 26 27 27 27 26 26 26 26 26 26 26 26 26 26 26 26 26
14 15 15 15 15 15 15 15 14 14 14 14 16 20 20 18 18 17 17 19 21 21 21 21 21 22 23 23 22 21 23 24 24 24 24 23 24 24 24 24 24 24 23 23 23 22 22 23 24 23 22 22 22 22 22 23 23 23 24 23 22 24 24 23 23 24 24 24 25 25 24 25 27 26 26 26 26 26 25 25 25 25 26 26 26 26 26 26
14 15 15 15 15 15 15 14 13 14 14 15 17 20 18 17 17 17 18 20 21 21 21 21 22 22 23 22 22 22 24 24 24 25 24 24 24 24 24 24 24 23 23 23 23 23 23 23 23 22 22 23 22 22 22 23 23 23 24 23 23 24 23 23 24 24 24 23 24 25 23 24 26 26 26 26 26 25 25 25 25 25 25 25 25 26 26 26
14 15 15 15 15 14 14 13 14 14 15 16 18 18 17 17 17 17 18 20 21 22 22 21 22 22 23 22 22 23 24 24 24 25 24 24 25 24 24 24 24 23 24 23 23 24 23 22 22 22 22 23 23 22 23 23 23 23 23 24 24 24 24 24 24 23 22 22 23 24 21 22 25 26 26 26 25 26 26 26 26 26 26 25 25 25 25 25
14 15 15 15 15 14 14 15 15 15 16 19 19 18 17 17 17 16 18 21 21 22 22 22 22 22 22 23 23 23 23 23 24 24 24 24 24 24 24 24 24 23 23 23 23 24 23 21 21 22 22 23 23 23 24 24 22 22 23 24 24 25 24 23 24 23 21 21 23 24 21 21 23 24 25 26 26 26 26 26 26 26 26 26 26 26 26 26
15 15 15 15 14 14 14 16 16 16 18 20 18 17 17 17 17 16 18 21 20 21 22 22 22 22 22 23 24 23 22 23 24 24 23 23 24 24 23 23 24 23 23 23 22 22 23 22 21 22 22 23 23 23 24 24 23 22 23 25 25 24 24 23 23 22 22 23 23 23 23 21 21 23 25 25 25 26 26 26 26 26 26 26 26 26 26 26
15 15 15 15 15 14 15 15 16 18 20 19 17 17 17 17 17 17 19 20 20 22 23 23 22 22 23 23 23 23 23 23 23 23 24 23 23 24 23 24 24 23 23 22 21 21 22 22 22 22 22 23 24 24 24 24 23 22 23 24 25 24 24 24 23 22 23 22 21 22 23 21 21 23 25 25 24 25 25 26 26 26 26 25 25 25 25 25
15 16 15 15 15 15 15 14 15 19 19 17 17 17 17 17 17 19 20 19 20 22 22 22 22 22 23 23 23 23 23 23 23 23 23 23 23 24 23 23 24 23 23 23 22 22 22 23 23 23 23 23 24 24 24 24 23 22 23 24 24 24 24 24 23 22 22 21 20 21 22 21 21 22 24 24 24 24 25 25 25 26 26 25 25 24 24 24
16 16 16 15 15 14 15 15 16 18 17 17 17 17 17 18 18 20 19 19 21 22 22 23 23 22 23 23 23 23 23 23 23 23 23 23 23 23 23 23 23 23 23 23 23 23 23 22 21 22 23 24 24 23 22 23 23 23 23 24 24 24 24 23 23 22 21 20 21 21 21 21 20 22 23 23 23 24 24 24 25 25 25 25 24 24 24 23
17 17 17 16 15 15 16 17 18 17 17 17 17 17 18 19 20 20 19 20 21 22 22 23 22 22 23 23 23 23 23 23 23 23 23 23 23 23 23 22 23 23 22 22 23 23 23 22 22 23 23 23 24 22 22 22 22 23 23 23 22 22 22 22 22 21 20 20 21 21 22 21 20 21 23 24 23 24 23 24 24 23 24 24 23 23 23 22
17 18 18 17 16 16 17 18 18 17 17 17 17 19 19 20 20 20 20 20 21 21 22 22 22 22 22 23 23 22 23 22 23 23 23 23 23 23 22 22 22 22 21 21 22 22 23 24 24 23 23 23 23 23 22 22 23 23 23 22 21 20 20 20 20 21 20 20 21 21 21 21 21 22 23 23 23 23 23 23 23 22 22 22 22 22 22 21
18 18 18 17 17 16 16 17 17 17 17 17 18 20 20 19 19 20 20 21 20 21 21 21 22 22 22 23 22 22 22 22 22 22 22 23 23 22 21 21 22 21 21 21 21 21 22 24 24 23 22 23 23 23 22 22 22 23 22 21 20 20 20 20 20 20 20 20 21 21 21 20 21 22 23 23 23 22 22 22 22 22 21 21 22 22 22 21
18 18 17 17 17 16 16 16 17 17 17 18 19 20 19 19 19 19 20 21 21 21 21 21 21 22 22 22 21 21 22 21 22 22 22 23 23 22 21 21 21 22 22 21 21 21 21 21 23 23 22 23 23 24 23 23 23 23 24 23 21 20 20 20 20 20 20 20 20 21 20 20 21 21 22 22 22 22 22 22 22 21 21 21 22 22 21 21
17 17 17 17 16 16 16 17 18 17 17 19 20 20 19 19 20 20 20 21 21 21 21 21 21 22 22 21 21 21 21 21 22 22 22 22 22 21 22 21 21 21 22 21 21 21 20 21 23 23 22 22 23 24 24 23 23 23 24 23 21 22 21 20 20 20 20 20 20 20 20 21 22 21 22 22 22 22 22 22 22 21 21 21 21 21 21 20
17 16 17 17 16 16 17 18 18 17 18 20 20 20 20 20 20 21 20 20 21 21 21 21 21 21 21 21 21 21 20 21 22 22 22 22 21 21 21 20 20 21 21 21 21 21 20 21 23 23 22 23 23 23 24 23 22 23 22 22 22 24 23 21 20 19 19 19 20 20 21 22 22 21 22 22 22 22 22 22 22 22 21 21 20 20 20 20
16 16 18 18 17 17 17 18 18 17 19 20 19 19 20 20 20 21 20 20 20 21 21 21 21 21 21 21 21 21 21 21 21 21 21 21 20 20 20 20 20 20 20 20 21 21 20 21 23 23 22 22 22 22 23 23 23 22 21 22 23 23 23 21 20 19 19 19 20 20 20 21 21 21 22 22 22 22 22 22 22 21 21 21 20 20 19 19
16 17 19 18 17 17 18 17 17 18 19 20 19 19 20 20 20 20 20 19 20 20 21 21 20 20 20 20 20 21 21 21 21 21 21 21 20 19 20 20 20 20 20 20 20 21 20 20 22 23 22 22 22 22 22 23 23 23 22 24 23 21 21 21 20 19 19 19 20 20 20 20 21 21 21 21 22 22 22 22 22 22 21 21 20 19 19 19
16 18 19 17 17 18 18 17 18 19 19 19 19 19 20 20 20 19 19 19 20 21 21 21 20 20 20 20 20 21 20 20 21 21 20 21 20 18 19 19 19 20 20 20 20 20 20 20 20 22 22 22 22 22 21 22 23 23 22 23 23 21 21 21 20 20 20 19 19 20 20 20 21 22 22 22 22 22 22 22 22 21 21 20 20 19 19 18
17 19 19 17 17 18 17 18 19 19 19 19 20 20 20 20 19 19 19 19 20 20 20 21 20 20 20 20 20 20 20 20 21 20 20 21 20 18 18 18 19 20 20 20 20 20 20 19 19 21 22 21 21 22 22 22 22 22 21 21 22 21 21 21 21 21 20 19 19 19 19 20 22 24 24 23 23 23 22 22 21 21 21 20 19 18 18 18
17 19 18 17 17 17 17 18 19 19 19 19 19 19 19 19 19 19 18 18 19 20 20 20 20 20 20 20 20 20 20 20 20 20 20 20 20 19 17 17 17 18 19 20 20 20 20 19 19 20 21 21 21 22 21 21 21 21 21 21 22 21 21 20 20 21 21 20 20 20 19 20 22 24 24 24 23 23 22 22 21 21 20 19 19 18 18 18
17 19 18 16 17 17 18 19 18 18 19 19 19 19 18 18 19 19 19 18 19 19 20 20 20 20 20 20 20 20 20 20 20 20 20 20 20 19 17 15 16 17 18 19 20 18 18 19 19 19 20 21 22 21 20 20 21 21 21 22 22 22 21 20 19 20 21 20 20 20 20 20 21 22 23 23 23 22 22 22 21 21 20 19 18 18 18 18
18 18 17 16 17 17 18 18 18 18 18 18 18 18 18 18 19 19 19 19 19 19 19 19 19 19 19 19 19 19 19 19 19 20 20 19 19 18 16 16 16 17 18 19 19 18 17 18 19 19 20 21 22 21 20 20 20 20 21 21 21 21 21 21 20 20 20 20 20 19 19 20 20 21 21 22 21 21 21 21 21 20 19 19 18 18 18 18
17 17 17 17 17 17 18 18 18 18 18 18 18 17 17 17 18 18 18 18 18 19 19 18 18 18 18 18 19 19 19 18 19 19 19 19 18 16 16 16 16 17 18 18 18 18 18 18 18 18 18 19 20 20 20 20 20 20 21 21 20 21 21 20 20 20 19 19 20 19 19 20 20 20 20 21 21 21 20 20 20 19 19 19 18 18 18 18
15 16 17 17 17 17 17 17 18 18 18 17 17 17 17 17 16 16 17 17 17 18 18 18 17 18 18 18 18 18 18 18 18 18 18 18 17 16 16 16 16 18 17 16 16 17 18 18 18 17 17 17 18 19 19 19 19 20 20 20 20 20 20 19 19 19 18 19 20 19 19 21 21 20 20 21 20 20 20 20 20 20 19 19 18 18 18 18
15 16 16 17 18 17 16 15 16 17 17 17 17 16 17 17 16 16 16 16 16 17 17 17 17 17 17 17 17 17 18 17 17 17 18 18 17 16 16 15 16 17 15 15 16 17 17 18 18 17 17 17 18 19 19 18 18 19 19 19 19 19 19 19 19 18 19 19 19 19 19 20 20 20 20 20 20 20 20 19 19 19 19 18 18 18 18 18
15 14 14 14 16 16 16 16 16 16 16 16 16 15 16 16 16 16 16 16 16 16 16 16 17 17 17 17 17 17 17 17 17 17 17 17 17 17 16 15 16 15 14 15 16 17 17 17 17 17 17 18 18 19 19 18 18 18 18 19 19 19 19 18 18 18 19 19 18 20 20 19 19 20 20 20 20 20 20 19 19 19 18 18 18 18 18 18
13 13 12 12 13 15 15 14 15 15 16 15 15 14 15 16 16 15 15 16 16 16 16 16 16 16 16 16 16 16 16 16 16 16 16 16 17 17 16 16 16 15 15 16 17 17 16 16 17 17 17 17 18 18 18 18 18 18 18 18 18 18 18 18 17 18 19 18 18 19 20 19 19 20 21 21 21 20 20 20 20 19 19 18 18 17 18 18
12 13 12 11 12 13 13 12 13 14 15 15 14 14 14 15 14 14 14 15 15 15 15 15 15 16 16 16 16 16 16 15 15 15 15 15 15 16 16 16 16 16 16 17 16 16 16 16 17 17 17 17 18 18 18 18 17 17 17 18 18 18 18 18 18 18 18 18 18 19 18 18 19 20 21 21 21 21 21 20 19 19 18 18 18 18 18 18
10 10 10 12 13 13 12 12 13 14 14 14 14 13 13 14 14 13 13 13 14 14 15 15 15 15 15 15 15 15 14 14 14 14 14 14 15 15 16 16 16 16 17 16 16 15 15 15 16 16 15 16 17 17 18 18 17 17 17 17 18 18 18 18 17 18 18 17 18 18 16 16 18 20 20 20 20 20 20 19 18 18 18 18 17 18 18 17
8 8 7 10 12 12 12 13 13 14 14 13 13 13 13 13 13 13 13 12 13 13 13 14 14 14 15 15 14 13 12 12 13 13 13 13 14 15 15 15 15 16 16 16 15 15 15 15 15 15 14 15 16 17 17 17 17 17 17 17 17 17 17 17 17 17 17 16 17 16 16 17 18 19 20 20 19 19 19 19 18 18 17 17 17 17 17 17
7 7 7 9 11 11 12 13 13 13 13 11 11 12 12 12 12 12 12 12 12 12 12 12 13 14 14 14 12 12 11 12 12 13 13 13 14 14 15 15 15 15 15 15 15 15 15 15 15 15 14 14 16 16 16 16 15 15 15 16 16 17 17 17 17 17 17 17 16 16 16 17 17 18 19 19 18 18 19 18 18 17 17 17 17 17 17 16
Height
803 802 802 801 800 800 799 798 797 796 796 795 795 794 793 793 792 791 791 790 790 789 789 788 787 787 786 785 784 782 780 780 780 779 777 772 771 772 771 772 772 774 775 776 777 777 776 776 776 776 776 775 773 771 773 772 770 773 776 779 777 772 768 764 764 763 764 764 762 760 760 764 763 758 755 755 756 755 757 758 758 759 758 759 761 765 769 774
802 802 801 800 800 799 798 797 796 795 795 794 794 793 792 792 791 791 790 790 789 789 788 787 787 786 785 783 782 781 780 779 778 775 772 770 770 771 771 772 772 774 774 775 775 774 774 774 774 775 774 773 773 772 773 772 772 773 773 777 773 766 763 762 764 764 764 766 764 761 760 762 762 758 755 758 759 757 760 762 761 762 762 761 762 766 770 774
802 801 800 800 799 798 797 797 796 795 794 794 793 792 792 791 791 790 790 789 789 788 787 786 786 784 783 782 781 780 779 778 775 770 769 769 769 769 770 771 772 773 774 774 774 773 772 772 773 773 772 772 772 772 773 772 772 771 772 776 768 761 763 763 764 765 763 764 765 764 760 759 759 757 756 757 758 758 760 760 761 764 764 763 764 766 770 774
801 800 800 799 798 798 797 796 795 795 794 793 792 791 791 790 790 790 789 789 788 787 786 785 784 783 782 781 780 779 779 776 769 767 767 768 767 768 770 771 772 773 774 774 774 774 773 773 772 772 772 772 771 772 772 772 771 770 772 772 763 762 767 764 762 763 762 763 765 764 761 759 757 756 757 756 760 761 756 754 756 759 760 762 764 765 770 774
801 800 799 798 798 797 796 795 794 794 793 792 792 791 790 790 789 789 789 788 787 786 786 784 783 782 781 780 779 779 779 774 767 765 767 766 766 767 769 771 772 773 774 774 774 774 773 772 771 772 772 771 772 773 770 768 769 771 770 766 762 765 768 763 760 762 763 763 764 764 762 760 757 757 757 756 760 758 751 750 752 753 756 759 762 765 769 773
800 799 798 797 797 796 795 794 794 793 792 792 791 790 789 789 789 788 787 787 786 785 784 783 782 781 780 778 778 779 777 771 766 766 766 765 765 767 769 771 772 773 774 774 773 773 772 771 771 772 771 770 772 771 768 768 769 772 767 763 764 764 766 764 761 762 763 764 765 762 760 758 758 758 755 754 756 753 749 750 752 752 754 757 761 765 769 773
799 798 797 797 796 795 794 793 793 792 792 791 790 790 789 788 788 787 786 786 785 784 783 782 781 780 779 778 778 777 771 766 766 766 766 766 766 767 769 771 772 773 773 772 772 771 771 771 771 770 770 770 770 769 769 769 769 771 767 764 765 763 765 764 761 761 761 763 762 759 759 758 759 758 755 754 754 753 751 750 752 753 754 758 763 768 770 773
798 797 796 795 794 793 793 792 792 791 791 790 790 789 788 787 786 786 785 785 784 783 782 781 781 780 778 778 777 770 766 766 767 767 767 767 768 769 770 772 773 773 772 771 770 769 769 770 769 768 769 769 769 769 770 770 769 770 768 764 764 763 763 760 759 760 760 761 758 758 760 758 756 756 756 755 754 753 751 750 753 755 757 761 765 769 771 773
796 796 794 794 793 792 791 791 790 790 790 789 789 788 787 787 786 785 784 783 783 782 782 780 780 779 778 778 774 767 766 768 768 767 768 768 769 770 771 772 772 772 771 771 770 769 769 769 768 767 768 768 768 768 769 770 769 767 765 763 763 763 760 758 760 760 760 759 758 760 760 757 755 756 757 755 754 754 752 752 753 756 760 763 766 770 772 774
795 794 793 792 792 791 790 790 789 789 789 788 788 787 787 786 785 784 783 783 782 781 781 780 780 779 778 778 772 768 769 769 768 768 768 769 770 771 771 772 772 772 771 771 771 769 768 767 767 765 765 767 768 768 768 768 766 763 764 763 762 761 758 759 761 759 759 759 759 759 758 756 754 756 759 757 755 755 754 755 755 757 761 763 766 770 772 775
794 793 792 791 791 790 789 789 788 788 788 787 787 786 786 785 784 783 783 782 781 781 780 779 779 779 779 777 769 767 770 769 769 769 769 770 771 771 772 771 772 771 771 771 771 770 768 767 766 765 766 766 767 768 767 764 763 763 764 763 761 759 759 759 760 759 758 759 758 756 757 757 754 756 760 758 756 755 756 757 757 758 761 763 766 770 772 774
792 792 791 790 790 789 789 788 787 787 787 786 786 785 785 784 784 783 782 781 781 781 780 780 779 779 779 775 767 767 769 770 769 769 769 770 771 771 772 772 772 772 771 770 770 770 770 769 768 768 767 765 766 768 766 762 762 763 763 765 760 757 760 759 758 758 756 759 756 755 760 760 756 758 759 758 757 756 757 758 758 758 760 763 766 769 771 772
791 791 790 789 789 788 788 787 787 786 786 785 785 784 784 783 783 782 782 781 781 780 780 780 779 780 779 772 767 769 770 769 770 770 770 771 772 772 772 772 772 772 772 770 770 771 771 770 769 768 765 765 766 766 764 762 763 763 762 763 760 759 762 758 756 757 756 759 755 757 766 762 757 759 758 758 758 758 758 758 758 758 760 763 765 768 769 771
790 790 789 788 788 788 787 786 786 785 785 784 784 783 783 782 782 781 781 780 780 780 780 779 779 781 777 769 768 769 769 769 770 770 770 771 771 772 772 772 772 773 772 772 772 772 771 770 770 768 765 765 764 763 763 763 762 762 762 762 759 761 763 757 756 756 758 760 753 757 766 759 755 759 758 758 758 758 759 758 758 758 760 763 765 767 768 769
789 788 788 787 787 787 786 786 785 784 784 783 783 782 781 781 781 781 781 780 780 779 779 779 780 779 773 767 769 769 768 769 769 769 770 770 770 770 771 772 772 773 773 773 773 772 772 771 770 768 766 764 764 765 764 762 761 760 766 768 761 759 762 760 757 756 759 759 752 758 764 755 755 759 758 758 758 758 759 758 759 759 761 763 764 765 766 767
788 787 787 786 786 786 785 785 784 784 783 783 782 781 781 780 780 780 780 780 780 779 780 780 780 779 771 766 768 768 768 768 767 769 769 769 769 769 770 771 772 772 773 773 772 772 771 770 769 767 765 764 765 764 763 764 764 761 762 768 765 759 761 762 761 756 757 759 755 760 761 754 756 759 757 758 758 759 759 758 759 760 761 762 763 764 765 767
787 786 786 785 785 785 785 784 784 783 782 782 782 781 780 780 780 780 779 779 780 779 781 780 779 778 771 766 768 767 766 766 767 768 768 769 769 769 769 769 770 771 771 772 772 771 770 770 769 768 765 764 764 762 768 773 770 765 762 766 767 763 761 763 763 758 756 759 759 761 760 757 758 758 757 758 758 759 759 759 760 760 761 762 762 763 764 766
786 785 785 784 784 784 784 783 783 782 782 782 781 780 780 779 779 780 779 780 780 780 781 780 778 777 771 766 766 765 764 765 766 767 767 768 768 769 769 767 767 769 770 771 771 770 770 768 767 768 766 765 764 763 772 774 767 767 767 767 769 767 764 762 763 762 758 760 761 763 762 758 758 756 756 757 757 760 760 759 760 760 761 763 762 762 763 764
785 784 784 784 783 783 783 783 782 782 782 781 781 781 780 780 780 780 781 780 778 775 774 773 772 771 768 763 762 763 763 765 765 766 766 767 768 768 767 767 766 767 769 769 769 768 768 768 769 770 767 766 766 765 768 767 764 766 765 765 766 766 765 760 761 762 761 762 761 763 763 759 759 757 757 759 759 761 760 760 762 762 762 762 762 762 762 763
784 783 783 783 783 783 782 782 782 781 781 781 781 781 779 778 777 776 777 776 772 767 765 765 764 765 763 760 761 762 763 764 764 764 765 766 766 767 766 766 766 766 768 768 769 768 768 772 770 768 767 767 770 770 769 768 767 767 766 766 765 765 763 759 763 763 762 765 762 762 764 761 761 759 758 760 761 762 761 762 764 763 762 762 762 762 762 763
783 783 782 782 782 782 782 781 781 781 780 780 781 779 776 775 775 774 772 769 765 763 764 763 763 763 762 761 761 761 762 762 761 762 764 765 764 766 766 766 768 768 766 767 770 770 771 773 769 766 768 770 771 772 772 771 771 770 769 768 766 765 761 758 765 764 763 767 762 762 766 761 760 759 758 760 762 762 760 762 763 763 763 762 761 762 762 762
783 782 781 782 781 781 781 781 781 781 780 780 780 777 774 776 777 776 774 769 763 763 764 763 764 763 760 761 761 761 762 761 762 762 763 764 763 765 765 765 767 766 767 770 771 773 773 770 767 767 769 772 774 773 773 773 773 772 769 769 768 763 760 762 766 764 765 767 762 762 766 760 756 757 757 758 759 758 758 759 760 761 762 762 761 762 762 762
782 781 781 781 780 781 781 780 781 780 780 780 779 776 775 777 776 776 776 772 765 762 762 763 763 761 759 760 760 761 761 759 761 761 760 763 763 762 763 764 765 766 769 770 769 772 772 766 766 769 770 772 775 775 774 773 772 771 768 769 768 762 764 769 769 767 767 768 764 764 768 761 755 757 756 756 756 757 759 759 759 760 761 761 760 760 761 762
782 781 781 780 780 781 780 780 781 780 780 779 778 777 776 777 776 776 774 770 766 762 760 761 760 759 759 758 759 760 759 758 758 758 758 761 761 762 762 762 765 767 766 766 768 769 766 765 766 769 771 771 774 775 774 773 769 769 768 767 765 764 767 767 767 768 767 770 768 765 771 762 753 757 757 755 757 758 759 759 760 760 760 760 760 759 760 760
781 781 780 780 780 780 780 781 780 779 779 778 777 777 776 776 774 775 774 769 768 762 759 760 759 758 757 758 759 757 757 758 757 756 757 758 759 762 762 761 764 766 764 766 769 766 765 770 770 770 772 770 772 773 771 770 767 768 769 766 763 764 766 765 766 770 771 775 771 769 779 770 751 754 757 755 758 757 757 757 758 758 758 759 760 760 759 759
781 780 780 780 780 780 781 780 778 779 778 775 776 775 775 775 772 775 773 768 767 763 760 760 759 759 758 758 758 756 760 761 756 756 758 758 757 759 763 763 763 765 765 766 767 764 767 772 771 771 772 770 771 769 765 767 767 767 764 760 762 762 766 768 768 772 774 773 769 768 779 776 759 755 755 755 757 755 755 757 757 757 756 757 757 757 757 757
781 780 780 780 780 780 780 778 778 778 775 774 775 774 775 773 771 774 773 773 773 766 761 759 758 759 758 757 755 758 766 763 756 757 757 758 758 758 763 763 762 765 764 766 770 768 767 771 773 772 771 771 770 765 763 764 766 767 761 757 761 762 766 768 767 771 768 766 770 766 769 777 770 758 754 757 759 756 754 755 756 756 756 757 756 756 755 756
780 779 779 779 779 779 778 778 778 776 774 774 774 774 774 771 772 772 774 784 780 763 758 759 757 758 756 756 756 758 762 759 760 762 756 758 759 759 763 761 760 763 763 768 773 770 767 770 772 771 771 770 762 757 759 762 764 767 763 759 758 760 764 765 766 768 766 773 779 766 765 781 775 756 752 758 759 756 755 756 756 756 756 757 757 757 756 757
779 778 778 778 778 778 778 778 777 775 774 774 773 774 772 771 773 769 774 786 775 758 759 759 757 759 756 757 758 757 757 756 760 761 756 759 759 758 762 760 759 763 763 765 768 767 766 766 766 766 769 765 757 756 758 761 763 764 763 760 759 761 763 765 768 765 768 783 783 767 768 782 776 756 752 759 759 756 756 756 756 755 755 755 757 758 757 757
778 777 777 777 777 778 777 776 775 774 774 774 773 772 771 772 773 776 784 784 768 760 759 757 758 760 757 758 760 758 758 757 758 758 758 759 758 759 761 760 760 762 764 764 764 762 762 764 766 765 764 759 757 762 763 762 763 763 762 762 763 764 763 766 766 764 776 786 777 767 768 779 782 761 750 759 762 760 760 759 759 757 756 756 757 757 757 757
776 775 775 776 776 776 775 774 773 774 774 773 772 771 771 771 771 780 787 775 763 762 759 758 760 758 757 759 760 759 759 759 759 758 759 759 759 760 762 763 763 764 765 764 762 760 760 764 764 760 759 758 759 764 765 764 762 763 762 763 770 772 770 772 770 773 789 788 773 767 765 777 786 767 752 758 760 760 763 762 762 762 760 759 759 758 757 758
775 774 774 774 775 775 774 773 772 773 773 772 772 769 770 775 775 776 775 767 767 766 760 761 761 759 760 758 760 761 759 761 761 759 759 759 759 761 764 764 764 769 771 765 764 764 758 756 756 757 758 759 761 763 766 765 763 764 764 767 778 782 784 788 782 779 783 779 771 768 770 778 777 761 756 761 760 760 764 763 764 764 763 762 761 759 758 758
774 773 773 773 773 774 773 773 773 773 772 771 771 766 769 780 780 773 767 766 770 765 760 764 762 761 761 759 762 764 761 764 763 760 762 760 760 764 768 767 764 770 773 768 769 768 760 753 754 759 759 757 758 761 767 767 764 765 764 769 780 786 793 796 785 776 773 772 771 768 774 781 770 757 758 761 761 763 763 764 765 765 765 765 761 759 759 758
774 772 773 773 773 773 772 772 772 771 771 770 768 768 775 783 778 773 769 765 766 763 762 766 763 761 761 761 766 765 763 766 763 760 762 760 762 766 768 769 767 767 768 770 772 770 770 768 760 759 760 758 756 755 757 759 760 760 755 760 772 777 787 791 783 778 774 772 775 776 780 779 770 764 761 759 761 762 762 764 765 765 764 763 762 760 760 759
773 772 772 772 773 772 771 771 771 771 771 768 767 771 779 779 770 769 768 763 763 764 763 765 763 763 764 764 767 766 765 767 763 761 762 761 766 768 767 770 769 767 768 773 773 771 775 770 757 755 758 757 757 753 750 755 760 756 751 759 767 763 768 777 779 781 780 778 779 780 776 764 760 764 759 758 761 761 763 765 764 766 764 763 764 762 761 761
773 772 772 772 772 771 771 771 770 771 770 767 770 773 772 769 764 763 764 763 763 763 764 765 763 763 765 766 767 766 766 766 763 763 765 766 769 770 771 772 771 770 769 771 772 772 776 768 754 755 757 755 757 754 751 757 761 759 759 762 757 750 756 771 781 783 787 789 778 771 769 759 761 766 759 758 762 761 764 764 763 766 764 764 766 764 763 763
772 771 770 771 771 770 770 770 770 771 769 767 772 772 765 764 764 762 763 765 764 762 763 767 766 765 767 767 767 766 766 766 764 764 766 769 772 774 774 773 773 772 770 770 771 769 774 771 755 753 759 756 756 756 752 752 755 760 764 757 750 753 757 766 780 784 786 789 775 764 769 766 765 768 762 759 763 763 763 762 763 765 764 765 767 766 766 765
772 770 769 770 770 769 768 769 770 769 767 767 771 771 765 764 764 763 764 766 765 763 763 766 768 767 767 768 768 766 767 768 766 767 767 768 773 777 775 774 774 772 771 772 772 770 774 776 760 752 759 758 754 758 758 753 752 755 756 749 753 769 770 768 780 784 783 786 776 765 766 763 759 759 760 761 761 762 762 761 763 764 764 766 767 767 768 767
771 768 767 769 769 768 768 769 769 767 768 769 769 768 764 763 764 764 765 765 764 763 763 762 765 768 767 767 767 767 769 769 767 769 770 768 774 778 777 777 775 772 771 771 771 770 773 779 771 755 755 759 755 758 762 757 753 753 754 750 752 763 766 765 772 776 779 784 780 772 767 760 750 745 751 756 755 757 761 760 762 764 764 766 767 768 769 769
770 767 765 768 768 767 768 768 767 767 769 768 765 763 762 763 765 765 766 767 764 763 764 762 764 768 768 767 767 767 770 771 768 769 771 768 773 779 779 779 778 774 773 772 772 772 772 780 780 761 754 761 760 757 757 756 755 757 759 759 757 758 758 760 762 761 768 778 780 779 773 758 743 737 742 748 750 753 757 759 762 763 764 766 767 769 770 771
770 766 765 767 768 767 768 768 768 767 766 765 764 763 764 764 764 765 767 768 765 764 764 763 764 766 767 768 768 767 770 771 769 769 770 768 770 777 780 783 782 778 775 772 771 774 774 778 781 770 762 763 759 755 756 758 758 758 758 757 756 757 761 770 771 758 758 767 769 772 772 756 742 739 738 742 748 752 753 756 760 762 764 766 768 769 770 771
769 766 765 767 767 766 767 767 767 768 766 764 764 764 767 767 765 765 767 767 765 764 764 765 766 766 767 767 767 767 769 770 770 769 770 768 768 774 781 785 785 782 779 775 772 777 779 777 778 776 768 760 755 755 759 761 759 758 758 754 751 753 758 771 775 762 758 761 759 764 769 758 747 745 742 743 748 751 753 756 759 762 765 767 769 770 771 771
767 765 765 767 766 765 767 767 768 768 766 765 765 766 768 769 767 766 766 766 766 765 765 767 768 768 768 768 768 768 769 771 771 770 770 771 773 778 783 784 785 782 779 775 774 779 782 779 778 776 766 755 751 754 757 760 761 761 758 754 754 755 754 759 762 759 762 764 763 771 775 762 753 752 749 750 752 754 757 758 759 764 767 768 770 771 772 772
769 767 765 766 765 764 766 767 766 764 765 766 768 768 770 770 770 769 768 769 768 768 768 769 770 770 771 771 771 769 770 774 774 772 772 773 776 782 784 783 783 779 777 779 778 780 781 777 778 780 776 769 765 762 761 761 762 760 757 756 758 756 755 759 758 760 767 765 762 771 771 757 752 754 753 754 756 757 760 760 760 764 767 768 770 771 772 773
770 768 766 765 764 764 766 767 765 763 765 768 769 770 770 772 774 774 772 772 772 771 771 772 772 772 771 773 774 772 772 776 775 775 776 775 777 783 784 784 783 778 780 784 782 781 781 777 778 784 785 783 778 770 766 765 761 758 758 760 761 759 760 763 764 767 770 764 759 766 764 753 751 754 754 755 756 757 759 760 761 763 765 767 769 771 772 773
770 769 768 765 764 765 769 770 768 766 767 769 771 772 772 772 775 776 774 774 775 774 774 774 773 773 774 775 777 775 774 775 776 776 776 775 777 781 784 785 784 782 785 787 784 781 781 779 778 781 780 777 773 764 762 766 768 766 765 762 761 762 762 764 768 768 766 763 761 761 758 755 757 757 755 755 756 757 759 761 762 762 765 767 769 771 772 772
773 775 776 774 770 768 769 770 770 769 770 771 774 776 775 773 774 776 775 776 777 776 776 776 774 776 777 776 777 778 776 776 778 778 777 776 776 779 784 785 784 785 787 786 783 781 783 782 779 778 778 773 769 765 763 768 771 769 767 765 764 763 763 767 769 764 759 763 763 753 751 757 758 754 752 753 756 757 759 761 762 763 765 767 769 771 772 773
778 782 784 784 780 774 774 776 775 773 772 773 776 779 778 776 776 778 778 778 777 777 778 779 777 776 776 777 777 779 779 779 781 781 780 780 779 779 782 783 783 785 785 782 781 781 784 783 777 776 778 773 768 767 767 769 770 768 766 767 766 765 765 767 768 762 760 764 762 752 752 757 755 751 749 748 751 754 756 758 760 762 765 767 769 771 771 772
784 784 785 787 784 781 783 784 781 777 776 776 779 781 781 779 780 783 782 780 780 779 779 781 781 778 777 778 777 778 780 782 784 784 783 784 784 782 780 781 782 782 781 781 782 784 785 782 777 776 777 773 770 767 765 767 768 768 767 766 765 764 763 763 763 761 759 759 756 754 757 758 755 752 748 745 747 749 751 755 759 762 765 766 768 769 770 771
793 793 793 788 783 784 786 785 782 778 777 779 781 783 784 783 783 785 785 786 785 783 782 782 782 781 781 780 779 781 786 788 787 788 789 788 786 783 781 781 781 781 780 782 784 785 787 785 780 780 781 777 772 769 766 765 765 766 767 764 762 762 761 760 761 760 761 760 757 759 764 761 754 749 747 747 749 750 752 756 760 762 764 766 767 768 770 771
802 802 801 793 786 787 787 784 782 779 777 781 785 786 787 786 786 787 788 790 790 788 788 786 785 785 782 782 784 788 792 793 792 791 792 791 787 785 784 784 783 783 783 784 785 787 788 785 781 784 786 779 772 769 766 765 765 765 764 762 762 763 762 760 760 760 762 764 764 764 764 759 751 747 746 748 751 752 752 755 759 762 764 765 766 768 770 772
805 803 803 797 790 790 788 784 782 781 784 791 792 790 791 790 789 790 792 793 791 791 791 790 789 786 782 785 791 795 796 796 794 793 792 791 789 787 786 786 786 786 786 786 787 787 786 785 783 784 784 778 771 769 768 771 774 770 765 763 762 762 761 759 758 756 756 760 764 763 759 755 752 750 749 749 752 753 753 755 760 763 764 765 766 767 769 772
Wind_Speed
9 9 9 9 9 8 9 9 9 8 8 8 8 8 8 8 8 8 8 7 7 7 7 7 8 8 9 10 10 12 12 12 10 9 11 10 6 6 5 3 12 16 13 10 10 10 9 10 9 9 8 7 6 4 6 5 4 5 5 6 5 5 3 1 2 1 3 2 3 7 7 10 7 1 2 4 10 9 11 9 6 7 5 6 12 19 23 23
9 9 9 9 9 9 9 9 9 8 8 8 8 8 8 8 8 8 7 7 7 7 7 7 8 9 9 9 10 12 13 12 12 11 12 11 8 8 5 6 14 17 14 10 11 11 9 9 9 10 8 6 5 5 7 6 5 6 4 5 6 4 1 2 2 2 3 5 7 8 7 9 7 1 2 7 12 12 12 11 10 10 9 11 16 20 22 22
9 9 9 9 9 9 9 9 9 9 8 8 8 8 8 8 8 8 7 7 7 7 7 8 8 9 9 9 11 11 11 11 10 5 5 4 6 9 7 11 15 16 12 9 9 8 6 6 9 10 8 6 5 6 7 6 6 6 4 6 5 2 1 1 3 4 5 7 9 8 9 9 4 1 3 6 11 13 12 12 13 13 13 14 16 18 21 21
10 9 9 9 8 8 9 9 9 9 9 8 8 9 8 8 8 8 8 7 8 7 7 8 8 9 8 10 11 9 9 9 3 4 1 4 5 10 12 14 15 13 9 7 7 6 5 6 9 9 8 6 5 6 7 7 5 4 5 7 2 1 3 3 3 4 5 7 9 9 10 7 1 2 5 5 9 11 11 11 12 14 15 16 17 18 20 20
10 9 9 9 9 9 9 9 9 9 9 9 9 9 8 8 8 8 8 8 8 7 8 8 8 8 9 10 9 6 7 5 3 4 3 5 4 12 17 17 15 10 9 9 8 7 7 7 8 8 7 5 6 7 7 7 4 3 7 8 4 2 4 3 2 4 6 7 8 9 9 6 2 5 5 7 8 5 5 7 6 11 15 16 18 18 18 19
10 10 10 9 10 10 9 9 9 9 8 8 9 8 8 8 8 8 8 8 7 7 7 7 8 8 9 8 6 5 6 1 4 3 4 2 6 17 20 17 14 11 10 10 8 7 8 8 8 7 7 6 7 7 5 7 5 5 7 6 5 6 5 4 4 4 5 8 8 8 7 6 6 5 4 7 3 4 3 5 4 9 13 15 17 16 17 18
11 10 11 10 10 10 9 9 9 8 8 8 8 8 8 8 8 8 7 7 7 7 7 7 7 7 7 7 4 7 5 4 6 4 2 6 14 20 19 15 13 12 11 9 8 8 7 9 8 6 6 6 7 6 4 6 8 8 6 4 5 5 5 6 6 5 6 9 9 8 7 7 6 2 3 6 3 6 3 6 7 9 12 14 15 15 16 17
11 11 11 11 10 10 9 9 9 9 8 7 7 7 8 8 8 8 7 7 7 6 6 6 6 6 6 6 5 6 1 6 6 3 4 12 17 19 16 13 12 11 10 9 7 7 7 8 6 6 6 4 5 6 5 7 9 9 7 3 4 4 6 7 5 6 7 8 8 7 7 5 3 0 3 5 5 4 3 7 10 11 12 13 14 15 15 15
11 11 11 11 11 10 10 9 9 9 8 8 7 7 7 7 7 7 7 6 6 5 4 5 5 4 5 5 8 3 4 6 3 1 10 16 18 18 14 11 11 10 9 7 5 6 7 5 4 4 4 3 5 6 6 8 6 7 7 4 5 6 5 5 5 7 6 5 5 5 4 0 1 3 3 5 5 4 4 7 11 12 13 13 13 14 14 14
12 12 12 11 10 10 9 9 9 9 8 8 7 7 7 7 7 6 6 6 5 4 4 5 3 4 4 6 8 1 5 4 1 5 11 17 17 16 10 9 11 9 8 6 6 6 3 2 2 2 2 4 5 3 5 6 1 3 5 5 7 7 4 4 5 6 4 3 4 4 2 4 4 5 3 5 4 3 5 7 11 12 13 13 13 14 14 14
12 12 11 10 9 9 9 8 8 9 9 8 8 8 7 7 6 5 6 5 4 3 3 4 3 4 5 8 5 2 4 2 4 6 11 17 16 12 8 7 9 8 7 6 6 4 1 1 1 2 2 4 5 4 5 3 1 1 5 6 7 6 3 4 5 4 4 3 2 4 3 5 5 3 4 6 3 3 6 8 11 11 12 13 14 14 13 13
12 11 10 9 9 8 8 7 8 8 8 8 8 8 7 7 6 5 5 4 3 3 3 4 3 4 5 7 2 5 4 2 5 7 11 15 12 8 5 6 7 7 6 6 5 3 2 1 3 4 2 3 5 5 3 1 3 4 5 6 6 6 5 4 4 4 4 3 1 4 4 7 5 4 7 5 3 4 6 8 10 11 11 13 14 13 12 12
11 10 9 8 8 8 7 7 7 8 8 8 8 8 8 7 6 5 5 4 3 2 2 3 3 3 6 2 4 4 3 3 6 8 10 11 8 6 5 5 5 5 3 3 3 1 4 3 6 5 1 3 3 2 1 2 5 5 5 6 4 7 6 5 4 6 5 2 1 6 6 7 7 6 6 4 3 5 7 8 9 10 10 11 12 11 12 13
11 10 9 8 7 7 7 7 8 8 8 8 8 8 8 7 6 5 5 4 3 2 1 2 3 4 5 3 6 3 2 3 6 8 10 10 7 6 5 5 5 4 3 1 1 2 4 4 6 5 2 4 1 0 4 5 5 4 4 4 4 5 6 8 4 5 6 3 2 7 6 4 8 6 4 3 3 5 6 7 8 9 9 10 10 10 11 12
11 10 9 7 6 6 7 7 7 8 8 8 8 8 7 7 5 4 4 3 3 2 1 2 2 4 4 4 4 2 1 4 6 8 10 11 8 7 7 6 5 4 3 3 2 1 2 4 6 4 2 2 3 5 5 5 5 4 4 4 5 4 6 10 5 2 4 5 2 7 6 3 7 6 4 2 3 4 5 6 8 9 10 9 9 10 11 11
10 9 9 7 6 6 6 7 7 7 7 7 7 6 5 5 4 4 3 2 3 1 1 3 2 5 4 4 5 3 3 4 4 5 9 10 7 5 7 8 6 6 5 3 3 2 2 4 4 3 2 4 5 5 4 4 5 5 5 3 4 5 5 8 6 5 4 4 4 5 7 3 5 5 5 3 3 4 5 6 7 8 9 9 9 9 9 10
10 9 8 7 6 7 6 6 7 7 6 5 5 3 2 3 3 3 2 2 2 1 1 4 3 5 2 4 5 5 4 2 2 4 8 9 6 5 8 7 6 6 6 4 4 5 4 4 3 2 4 3 2 4 4 5 5 5 4 2 3 4 3 6 8 5 2 3 4 3 7 3 4 3 4 3 3 5 6 6 7 7 8 8 8 9 10 10
10 9 8 7 7 6 6 5 6 7 6 4 2 1 2 1 2 1 1 1 1 2 4 3 3 3 3 5 4 3 3 2 2 4 7 8 7 6 6 4 5 6 8 6 5 6 5 4 4 3 4 4 3 5 5 2 1 3 4 3 4 3 3 3 6 4 1 4 4 4 7 3 2 3 4 4 4 5 6 6 5 6 7 7 8 10 11 11
10 8 7 7 6 6 5 5 6 6 5 2 1 2 2 2 1 2 4 4 3 3 1 2 3 3 2 5 2 3 1 2 3 5 7 9 8 7 5 4 4 6 7 6 5 5 4 4 5 4 4 3 1 3 3 3 3 1 2 3 3 5 4 2 5 5 3 3 5 3 4 3 0 2 5 5 4 6 7 6 5 5 6 7 8 9 10 11
9 7 6 6 5 5 5 5 5 5 4 2 2 2 1 1 1 3 4 6 6 5 4 1 3 4 0 3 2 1 2 4 5 6 9 9 9 8 7 5 5 6 6 3 4 3 3 4 5 2 0 3 2 2 4 3 3 2 3 4 4 4 4 4 5 5 3 4 4 2 3 3 1 1 4 4 4 6 8 7 7 6 7 7 8 10 11 11
8 6 6 5 4 4 4 5 4 4 2 3 4 3 2 4 3 2 2 4 5 4 5 3 3 6 4 2 2 2 2 5 6 7 9 9 10 9 7 6 7 6 3 1 2 2 3 5 2 1 3 4 1 1 0 1 2 4 5 6 5 6 4 5 5 4 2 5 3 3 5 6 3 1 3 4 5 7 8 8 8 8 8 7 8 10 10 10
7 5 4 3 4 4 4 4 3 1 2 4 4 3 3 5 4 3 4 4 3 2 4 3 4 6 5 5 3 3 3 6 8 9 8 8 10 7 5 6 7 3 5 4 3 4 6 5 3 5 3 3 2 3 4 4 4 5 5 6 6 5 4 5 6 4 2 4 3 2 6 7 4 3 3 5 6 5 5 6 7 7 8 9 9 9 9 10
6 4 3 3 4 4 4 3 2 2 4 4 4 1 3 2 3 3 5 5 1 3 3 4 4 4 4 3 3 5 6 4 7 10 10 9 8 5 4 6 4 2 5 7 5 4 4 3 6 5 2 4 4 4 6 5 4 6 5 6 5 3 4 4 6 6 3 3 5 2 5 7 5 6 5 6 5 3 3 4 4 5 7 8 8 8 9 10
6 4 4 4 4 4 3 2 2 3 4 4 4 1 1 3 4 4 5 4 1 3 1 1 2 3 2 2 4 8 4 0 2 7 11 10 6 3 4 4 3 4 5 5 5 6 1 7 6 3 3 5 5 6 7 6 5 5 5 7 4 3 5 5 3 5 4 2 3 5 7 8 7 8 7 7 6 5 5 6 5 5 5 6 7 8 9 9
6 4 4 4 4 3 1 2 2 3 4 5 4 2 2 6 5 5 5 4 2 4 3 3 2 2 2 2 5 5 3 2 1 4 8 9 4 3 2 2 3 4 3 3 5 6 1 6 3 4 4 6 6 6 7 6 4 5 7 9 7 4 5 5 2 3 6 5 2 4 7 4 5 7 7 7 7 8 7 7 6 5 5 6 7 8 9 9
6 4 4 4 4 3 2 2 3 2 5 6 3 1 5 9 5 6 5 3 5 4 3 4 2 3 3 3 5 3 4 4 2 3 6 5 2 3 2 3 3 1 2 3 4 2 3 4 3 4 5 6 6 6 6 6 7 4 7 9 9 7 6 6 5 5 6 3 3 2 7 3 3 6 5 6 6 7 8 8 6 5 6 6 6 7 7 8
8 4 5 5 5 5 2 1 2 2 4 2 1 3 8 9 3 6 4 3 5 1 2 3 0 1 2 1 4 4 2 5 4 4 4 3 3 3 4 4 3 2 2 3 3 1 4 5 5 5 5 6 7 5 6 8 8 1 4 7 9 8 7 7 6 6 5 3 2 5 6 5 5 5 5 5 6 7 8 8 7 5 5 5 5 6 6 7
10 5 5 5 7 7 5 3 2 4 3 2 2 6 9 4 6 5 5 3 4 0 1 3 2 1 1 1 4 5 2 2 3 4 3 3 4 4 5 4 2 3 4 4 2 4 4 5 6 6 6 7 7 2 4 9 7 1 2 4 6 7 6 6 6 6 3 3 5 7 5 6 7 4 6 5 8 9 7 5 4 4 4 4 3 4 5 6
14 7 6 7 7 8 7 5 5 4 2 2 5 8 6 3 6 4 4 2 1 1 1 1 2 2 1 3 4 3 1 1 1 4 5 5 4 3 3 2 2 2 4 6 4 2 3 3 2 5 6 6 4 3 2 7 4 2 3 4 5 5 5 5 6 7 4 5 9 5 5 5 6 5 6 5 6 5 4 3 2 2 2 1 1 2 4 5
17 9 7 7 6 5 6 6 7 5 2 3 6 7 3 6 4 5 4 1 1 2 1 1 2 0 3 6 5 2 3 2 3 4 5 4 5 4 1 1 3 4 4 6 6 1 3 2 1 5 7 4 1 4 2 2 1 4 6 6 6 6 5 5 6 5 6 7 7 4 5 4 6 6 5 2 1 2 1 1 1 4 5 6 6 5 5 5
19 9 7 6 5 4 4 3 3 3 2 5 7 3 6 5 3 5 3 1 1 3 3 2 2 0 2 5 4 4 5 5 3 4 5 4 6 6 3 3 3 5 5 6 5 3 5 6 4 5 6 4 2 3 1 1 4 5 6 6 6 6 5 5 6 4 7 7 2 4 5 5 7 5 1 3 4 4 2 2 4 6 7 7 7 7 7 6
19 8 5 6 6 6 5 1 1 3 3 6 5 4 5 4 5 4 2 2 2 3 2 2 2 2 2 3 5 4 3 4 2 1 1 2 4 3 2 2 1 4 5 3 3 3 5 6 4 4 5 6 8 6 4 4 6 7 7 7 6 6 5 6 6 6 7 4 4 5 4 5 8 4 5 6 5 5 3 3 4 6 6 7 7 7 6 6
18 8 4 6 6 7 6 4 5 5 5 5 5 5 4 5 5 1 2 4 1 2 2 1 2 1 2 4 5 3 2 3 2 0 1 2 2 3 2 2 2 4 3 1 2 4 4 5 6 5 5 6 9 7 5 5 7 8 8 7 7 6 6 7 7 6 7 3 5 5 4 5 8 2 7 7 5 5 4 3 3 4 5 6 6 6 6 7
17 7 4 5 5 5 5 6 7 6 5 5 5 5 5 6 2 1 2 3 3 2 2 1 1 2 1 2 4 2 1 3 3 1 2 3 3 3 3 3 1 4 3 3 3 4 4 3 4 3 3 5 9 8 5 4 6 8 7 6 8 7 6 8 6 7 7 3 4 5 4 6 6 2 7 7 7 5 4 4 3 2 3 3 4 6 7 8
13 5 3 3 2 3 4 5 5 5 5 5 5 5 6 5 2 3 3 3 3 3 3 1 3 4 3 4 4 3 1 2 3 1 1 1 1 1 2 3 2 2 3 4 2 1 7 4 3 3 3 3 6 5 6 7 6 6 5 7 7 6 6 6 3 3 5 5 3 5 5 5 1 5 6 7 7 6 5 4 3 2 3 4 5 7 8 8
9 3 2 2 0 4 5 4 3 4 5 5 5 6 4 1 0 2 2 2 1 2 4 4 4 5 4 4 3 3 1 1 0 2 1 2 1 2 2 3 3 2 3 3 2 2 6 3 5 4 3 3 3 3 3 7 5 3 5 8 4 3 7 7 3 1 1 7 7 5 7 5 3 5 8 9 8 8 7 5 4 4 4 5 7 7 8 8
7 3 1 3 2 5 3 2 4 5 5 5 6 4 1 1 1 0 1 1 1 1 4 6 3 3 4 4 4 4 2 1 1 2 2 3 2 2 3 3 2 3 4 3 3 1 4 5 2 3 3 4 1 4 4 6 6 4 5 5 1 2 6 6 5 4 5 9 8 7 10 8 6 5 8 10 10 10 8 7 7 6 5 6 7 7 8 9
7 4 3 2 6 5 2 4 4 5 5 5 5 2 1 2 1 1 1 0 2 3 6 6 2 2 3 4 4 4 2 3 2 2 3 3 2 1 1 2 2 3 4 3 3 1 3 7 3 2 2 2 4 5 6 6 7 8 5 2 3 6 7 6 6 7 8 9 7 9 12 10 9 6 9 12 12 11 10 8 8 7 7 7 7 8 9 9
5 4 4 5 10 3 4 3 3 5 5 6 6 3 3 3 3 2 0 1 3 4 5 4 2 2 3 3 2 3 1 3 1 1 3 2 2 1 1 0 1 2 3 3 3 1 1 5 3 3 2 1 4 6 7 6 8 7 5 5 5 5 6 6 6 6 8 9 8 10 10 8 8 6 9 13 12 13 11 9 8 8 9 7 7 7 8 9
3 4 3 7 11 1 5 2 4 5 5 5 4 2 3 4 5 3 0 2 2 3 3 3 3 3 4 3 2 2 2 3 3 2 2 2 2 2 2 1 1 2 2 2 3 1 2 4 5 3 4 3 5 4 5 5 4 6 7 8 7 5 5 6 7 8 8 8 8 9 10 8 5 4 7 10 11 12 11 10 9 9 10 9 8 7 7 8
3 4 3 7 10 2 4 3 4 4 5 3 3 2 3 2 4 5 2 2 2 1 2 3 3 3 3 3 3 3 3 3 4 3 3 3 4 2 2 2 2 3 1 4 3 1 2 3 5 6 4 6 3 2 4 6 5 5 6 8 8 7 7 7 9 9 7 8 9 9 11 7 2 1 5 8 9 10 11 11 10 9 10 9 8 8 7 7
4 3 2 7 9 2 5 5 3 2 4 3 1 2 2 0 3 4 4 4 3 1 1 2 3 3 4 4 3 3 4 4 4 4 3 3 2 1 3 2 2 3 3 4 1 2 2 3 6 7 7 9 5 3 2 3 5 7 7 8 9 8 8 9 10 9 8 9 9 9 11 5 3 2 2 6 8 9 9 9 10 9 9 8 8 8 8 7
3 2 2 6 7 4 7 5 4 3 4 1 1 2 2 1 3 3 3 4 3 2 3 3 2 3 3 3 3 5 5 4 4 3 3 3 2 4 4 2 1 3 4 3 1 3 1 3 6 7 7 10 7 2 3 3 4 8 8 8 8 8 9 9 9 9 8 9 9 8 10 5 3 3 3 6 7 7 6 7 9 9 7 7 7 7 7 7
2 2 1 5 5 4 7 5 5 6 3 3 3 4 3 1 0 1 2 1 1 1 3 2 1 1 1 2 3 5 4 4 5 3 3 4 3 5 3 2 2 2 1 2 1 1 2 4 5 6 6 7 7 6 6 6 6 8 8 6 6 9 10 9 8 8 8 12 13 10 10 7 4 5 5 7 7 7 7 7 8 9 8 7 7 6 6 6
3 2 1 3 5 2 4 2 3 4 2 5 5 5 4 2 3 2 1 2 3 2 1 1 2 0 2 3 3 4 4 4 4 3 2 3 4 4 2 2 3 1 3 5 4 2 4 5 4 6 7 6 7 6 3 2 4 6 6 6 6 7 10 9 8 9 9 11 13 11 11 7 4 8 8 8 8 9 9 9 8 9 9 8 7 6 6 6
2 1 1 1 3 3 1 2 2 3 2 4 4 3 4 4 4 3 2 2 2 2 1 1 1 2 3 4 5 5 5 5 4 3 4 4 4 5 3 1 1 2 3 3 2 2 4 5 6 9 9 8 9 9 5 6 7 7 7 9 7 6 8 8 8 10 10 10 11 11 12 11 5 8 9 9 9 9 9 10 9 9 9 8 8 7 6 5
2 1 3 1 1 3 3 3 2 1 0 2 2 2 2 3 4 2 1 1 2 1 0 0 1 4 4 5 6 5 5 5 5 5 4 3 3 5 3 2 2 2 2 1 1 2 5 6 8 11 12 12 13 13 10 9 11 12 12 12 11 9 10 10 9 11 11 10 10 10 12 14 11 10 11 9 9 8 8 10 10 9 9 9 8 8 7 6
2 1 3 2 2 2 2 3 4 2 2 0 1 1 1 3 3 2 2 2 1 0 1 2 2 3 3 3 5 5 5 6 6 5 4 3 3 4 5 5 4 1 2 3 1 2 5 7 8 11 13 14 14 14 13 12 12 14 15 14 13 13 14 14 13 14 13 11 11 11 12 12 10 10 12 9 9 10 10 9 8 8 9 10 10 10 9 8
2 2 2 2 2 3 3 3 3 2 2 2 1 1 0 1 2 3 2 0 2 1 2 3 3 1 1 2 4 5 4 4 4 4 3 2 2 4 5 5 5 4 3 2 1 1 4 5 6 10 14 15 15 15 16 16 15 15 16 16 16 16 16 16 16 16 17 17 16 14 13 11 9 11 12 7 4 8 8 7 8 9 10 11 11 11 10 8
3 3 3 2 1 3 3 2 2 1 1 1 0 2 2 1 3 4 3 3 0 2 2 2 3 2 1 1 2 1 2 3 0 2 1 1 2 3 4 2 2 4 3 2 0 1 3 3 3 7 12 13 14 15 16 17 18 18 18 18 18 18 18 17 15 15 15 17 16 14 12 10 9 13 15 8 2 5 8 8 9 10 10 11 11 10 9 8
4 2 3 4 1 3 3 2 2 2 1 2 2 2 3 3 3 4 4 5 4 3 4 3 1 1 1 2 3 4 5 5 3 3 3 3 1 1 1 1 2 2 3 2 1 1 4 5 5 7 10 11 12 15 17 17 18 19 19 19 19 18 17 15 14 13 13 13 13 13 12 11 8 11 14 10 6 10 12 10 9 8 8 10 10 9 8 8
6 1 3 4 1 3 3 1 1 2 1 3 4 3 3 4 3 1 1 3 4 5 6 5 3 2 3 3 5 6 5 5 5 4 3 3 3 3 3 2 3 4 4 3 2 3 5 7 7 8 10 11 12 13 12 11 13 13 11 11 14 16 16 16 16 16 16 13 12 12 10 7 4 5 9 10 9 9 8 6 6 7 8 9 9 9 8 7
Wind_Direction
320 319 316 317 314 307 305 304 302 301 302 303 303 301 302 303 301 303 304 303 302 294 293 298 300 303 300 301 303 305 312 311 294 256 237 247 251 225 232 191 174 162 152 161 173 180 181 194 186 184 197 187 208 186 169 195 195 211 225 232 235 225 219 167 220 290 346 342 342 341 354 337 333 192 206 199 211 196 172 171 147 144 122 114 128 135 143 142
322 320 318 316 313 308 308 308 305 303 302 301 301 300 300 300 298 297 298 298 297 291 291 295 299 302 300 304 307 309 317 302 275 255 241 249 253 233 204 158 165 157 157 174 182 188 191 191 179 186 201 188 184 172 172 182 200 226 232 230 238 230 179 43 312 322 314 305 324 326 337 335 327 326 212 208 191 178 174 167 165 156 131 127 132 138 143 145
324 320 316 314 315 312 311 310 307 306 303 302 301 299 298 296 296 294 295 292 290 290 290 296 298 299 303 307 306 314 317 289 262 234 220 256 242 214 172 156 162 160 170 185 182 191 198 182 178 191 204 199 186 185 189 178 194 223 235 235 235 233 265 295 262 278 295 309 314 316 324 322 320 330 251 218 184 181 185 172 174 168 147 143 140 143 147 151
321 317 316 312 312 311 310 310 309 310 306 305 302 299 299 295 293 292 293 288 286 287 289 295 295 297 307 307 305 314 304 270 221 105 140 304 255 191 161 153 159 164 178 179 169 178 181 171 182 199 210 201 181 197 198 177 189 202 218 246 261 51 264 243 231 268 295 306 306 308 312 320 20 254 256 217 186 192 195 176 179 173 154 149 148 150 153 154
317 314 313 310 308 308 307 307 309 311 309 306 300 299 297 293 291 287 285 284 282 285 289 291 294 303 307 306 309 303 279 251 114 70 331 306 245 173 156 152 156 160 168 168 161 168 178 180 185 197 213 199 175 200 197 175 204 215 218 255 292 281 260 256 268 289 302 297 292 297 307 334 323 246 241 219 200 191 179 161 173 174 157 153 152 153 156 157
314 312 310 309 307 307 308 310 312 312 312 309 306 303 296 291 288 283 281 282 280 281 284 289 297 306 305 313 320 267 261 328 69 3 344 352 159 156 153 152 153 156 164 168 167 180 184 186 192 195 208 201 189 201 181 168 208 239 220 237 259 260 268 279 286 286 291 286 286 300 318 323 279 234 206 220 203 59 105 137 151 166 156 152 151 153 158 159
314 311 309 308 307 308 309 311 311 311 312 311 311 307 297 288 283 281 281 280 282 282 283 293 301 306 317 330 306 241 251 45 49 349 11 125 140 145 150 149 152 162 172 176 178 191 186 193 202 196 203 201 199 197 162 175 208 244 240 219 240 258 266 266 273 270 276 280 288 300 301 288 269 219 179 199 114 55 121 144 140 148 148 149 150 156 162 160
314 310 308 306 306 307 307 309 308 308 310 309 307 303 296 289 283 279 277 277 281 280 281 294 299 314 337 331 275 228 148 45 28 355 135 139 140 143 145 148 162 173 183 189 186 194 189 194 191 192 211 182 187 189 171 199 208 232 250 242 244 253 251 254 263 269 275 277 285 286 278 283 283 326 170 160 106 75 139 150 147 145 148 152 154 161 164 162
312 310 307 305 305 305 307 308 306 308 310 309 306 303 301 295 287 276 274 277 280 280 284 291 294 333 345 300 268 231 65 22 3 101 148 148 144 147 148 156 173 181 189 191 195 204 196 193 170 203 233 134 174 187 182 219 206 207 239 249 247 249 248 260 267 267 271 272 288 272 246 69 140 200 162 124 97 99 139 156 153 150 154 156 157 164 166 164
311 310 307 306 307 308 312 310 309 309 305 306 303 301 302 298 291 281 281 276 276 280 282 294 312 351 325 269 264 179 63 15 86 127 155 156 150 155 163 167 176 186 186 186 201 207 195 174 139 217 254 141 182 188 188 230 148 159 241 260 257 257 255 268 265 258 254 249 274 256 147 97 171 206 154 109 107 133 148 155 157 158 158 159 160 164 168 167
312 310 308 309 311 311 315 318 317 310 305 305 298 295 295 295 291 283 286 278 270 276 283 304 327 352 301 263 278 88 86 47 119 127 158 163 161 166 176 176 185 194 181 182 195 194 179 86 78 247 207 155 180 181 190 234 352 219 260 261 242 237 232 242 238 229 225 196 239 248 132 125 186 190 79 96 131 167 162 159 166 168 159 162 162 163 170 171
311 310 309 309 310 313 320 325 319 311 308 302 296 296 290 288 291 285 291 284 271 271 284 311 334 354 293 257 334 80 109 118 135 134 154 168 177 182 188 188 198 206 190 187 179 187 257 331 295 267 153 166 186 173 171 202 253 245 261 261 221 196 187 189 184 182 201 152 69 261 189 164 164 87 72 101 152 180 179 170 171 173 163 164 164 164 175 174
312 310 308 306 309 316 324 323 315 310 308 303 299 294 288 287 283 279 282 276 269 272 287 326 347 322 275 246 79 101 140 137 148 144 154 172 184 188 196 195 197 212 218 197 142 203 259 275 289 297 9 235 188 116 183 205 239 234 233 255 223 189 170 135 148 168 167 97 355 253 216 167 132 84 77 110 162 183 185 177 174 173 167 166 166 170 176 175
312 309 305 307 311 316 318 314 311 313 311 309 300 292 291 286 279 275 274 272 267 259 265 337 351 282 263 89 98 168 164 144 167 167 170 176 174 168 180 189 189 200 218 222 64 313 265 257 273 275 260 262 328 26 228 202 215 215 203 225 225 202 144 113 128 177 163 104 280 245 239 173 125 97 79 103 168 195 189 179 178 174 170 170 170 177 177 175
310 306 303 307 310 307 306 305 308 312 313 312 305 302 295 281 278 270 259 269 266 264 336 298 319 278 247 118 121 196 150 164 181 185 186 182 176 162 169 183 189 196 204 226 260 313 250 232 251 250 196 220 249 239 216 188 193 207 206 189 204 211 128 114 97 95 140 120 200 244 248 187 120 92 80 112 178 204 201 182 182 181 177 178 176 183 183 177
308 301 300 304 302 299 298 300 306 309 311 314 312 310 295 270 263 254 240 227 235 118 49 251 242 270 267 114 133 176 171 175 168 183 191 193 193 154 151 168 178 193 201 219 230 216 222 230 251 290 242 200 223 234 213 194 181 200 231 178 186 211 149 133 117 79 93 139 179 232 258 227 117 100 96 128 196 206 208 184 183 188 180 185 186 187 188 181
308 300 297 295 291 293 294 296 304 306 311 321 320 322 305 249 222 219 214 211 223 135 261 272 262 266 273 112 151 162 146 147 124 162 182 193 202 158 152 165 167 177 184 182 193 198 210 225 221 242 233 216 228 239 225 213 180 181 221 167 167 222 190 149 138 115 113 207 178 191 254 269 105 132 131 150 204 211 215 194 186 193 186 191 195 193 194 188
307 300 295 290 289 290 290 295 300 303 313 318 307 78 78 151 151 161 192 150 143 198 237 261 254 249 152 143 167 121 110 143 143 159 169 177 189 183 182 184 164 163 171 170 175 192 195 206 227 222 205 201 213 231 232 225 170 176 195 186 164 193 232 173 130 105 87 219 187 185 234 242 113 183 167 166 202 216 219 207 198 199 194 197 201 203 201 196
306 299 295 294 291 287 285 291 293 299 308 293 198 110 96 108 95 216 210 202 212 234 241 174 215 279 108 133 107 56 88 165 163 164 162 166 178 192 205 211 195 186 192 185 167 187 209 205 219 226 203 181 185 280 315 9 6 263 202 233 196 182 208 154 97 71 27 239 206 199 242 246 257 178 161 168 202 223 219 209 214 211 204 206 206 210 208 207
307 300 295 292 286 284 284 285 290 295 287 225 174 198 237 261 248 195 200 216 233 289 318 209 242 282 277 107 70 14 154 166 177 166 164 169 174 182 191 202 208 211 222 216 147 156 255 238 220 233 70 66 59 352 347 2 343 279 234 237 228 218 204 139 108 87 28 276 209 160 275 256 269 61 139 164 198 222 219 209 217 219 216 215 214 215 212 214
314 302 289 284 280 280 279 278 285 289 258 172 192 238 342 359 340 4 333 233 211 271 288 282 293 279 281 329 323 318 168 168 164 153 159 171 182 185 179 194 218 212 192 167 128 143 243 248 215 79 49 60 104 155 293 279 259 241 236 230 220 229 213 127 119 111 60 277 210 153 259 241 205 188 139 166 204 216 217 214 216 219 224 228 225 224 220 218
323 301 280 268 270 264 265 271 268 245 131 145 208 253 45 31 352 330 307 275 188 212 265 253 269 270 266 267 265 274 237 177 154 153 160 177 195 197 169 192 228 202 139 174 200 187 224 237 118 102 95 104 136 181 204 218 225 226 230 234 226 219 201 135 138 143 114 270 241 162 259 252 205 208 186 184 206 205 210 224 225 222 225 230 231 229 227 223
330 299 268 252 250 251 256 256 235 187 147 162 231 296 64 24 333 261 251 281 196 156 215 220 236 239 213 212 189 205 222 182 165 162 165 188 199 210 203 199 223 172 165 203 224 235 234 149 113 115 141 166 169 182 199 204 213 223 221 226 222 176 207 195 155 158 157 272 285 268 264 264 227 216 210 192 196 185 189 223 235 241 241 241 243 240 234 228
338 293 254 242 232 244 252 216 215 197 168 208 252 323 33 320 312 248 237 278 204 134 155 212 252 241 170 114 167 199 215 164 200 152 162 197 188 173 225 212 214 207 192 202 228 258 272 96 113 153 187 207 195 177 198 218 206 203 219 237 235 170 227 257 141 160 186 190 273 269 255 253 224 213 206 178 185 199 198 207 211 221 237 246 253 251 244 237
340 283 247 240 225 221 214 197 215 205 195 221 235 222 309 324 308 235 240 263 161 131 150 165 200 188 112 122 169 211 236 174 241 121 161 209 202 163 199 201 236 217 159 175 226 248 97 91 140 198 201 215 209 192 202 229 230 197 206 231 249 227 222 249 206 209 232 199 188 277 267 245 190 206 202 171 184 193 186 198 204 199 206 220 234 241 243 242
341 285 247 239 213 177 158 199 171 187 232 222 204 246 316 327 298 209 240 243 146 124 165 173 187 156 137 169 168 211 229 161 72 96 166 209 240 244 211 168 228 261 123 196 243 269 95 118 197 211 213 212 217 221 194 213 250 218 182 202 226 233 218 227 224 226 255 240 137 256 274 261 190 207 186 168 196 197 185 189 191 197 207 215 226 230 237 240
339 294 250 235 205 185 194 311 161 223 252 194 142 316 329 326 238 184 239 206 141 94 171 144 19 163 124 142 185 225 213 125 112 130 168 200 191 237 233 181 186 153 153 230 235 151 133 153 178 206 223 216 223 225 174 204 247 236 139 187 206 214 211 220 230 234 266 302 191 213 256 274 252 218 153 165 224 222 209 200 184 187 201 214 237 241 246 251
339 299 256 239 220 222 251 292 250 251 290 48 358 323 331 313 183 189 254 197 133 314 174 102 48 173 147 164 218 254 350 112 172 121 121 190 188 227 235 217 231 151 166 249 245 128 159 188 192 211 229 229 234 219 150 208 235 67 108 200 204 210 215 219 239 250 258 286 254 217 210 253 256 218 160 187 230 220 203 197 183 172 170 184 225 253 264 269
344 305 266 253 237 240 251 250 250 264 320 351 326 330 325 214 189 230 260 209 139 165 150 132 141 150 196 176 191 237 252 257 338 95 133 176 194 254 261 234 278 188 178 250 284 102 159 212 226 235 241 240 242 51 115 221 223 105 158 188 189 201 214 223 247 261 238 248 267 238 185 245 270 239 201 201 227 218 178 171 170 106 85 67 31 317 295 287
347 313 271 252 240 246 247 238 245 257 275 309 330 334 265 200 215 239 212 197 191 131 109 216 174 65 220 184 159 153 174 126 78 133 160 160 176 209 324 47 251 239 202 235 262 245 150 144 246 245 248 269 12 68 42 258 179 147 180 188 193 200 208 222 242 264 254 250 257 208 174 242 274 256 230 193 103 22 40 207 8 17 2 1 2 344 331 324
349 319 265 245 231 228 234 219 224 237 275 324 334 300 223 212 247 239 198 169 175 148 150 158 132 2 200 178 138 130 143 113 105 185 178 161 180 187 195 200 216 232 225 220 226 213 193 195 194 212 228 247 207 165 126 183 183 190 204 209 216 215 214 231 229 227 251 257 223 143 159 217 253 257 190 114 89 58 27 357 359 352 348 354 349 343 344 338
348 323 256 247 239 226 237 277 272 259 304 332 318 246 226 229 234 231 166 160 178 161 160 117 82 96 154 131 99 114 140 104 86 247 155 184 195 164 216 258 265 236 234 218 195 223 226 201 161 167 194 215 221 202 166 182 200 210 222 225 233 233 225 239 238 229 245 240 125 131 166 215 249 243 124 118 97 74 51 17 0 347 351 353 346 350 353 349
349 330 253 244 243 236 252 273 262 268 309 320 279 237 242 243 234 233 148 178 143 68 97 60 41 60 210 179 107 96 153 97 65 167 98 244 213 117 87 17 322 266 264 295 268 266 236 154 148 177 172 196 224 216 188 193 202 212 224 229 240 245 240 243 243 245 252 220 114 130 175 233 251 207 106 109 97 82 74 50 21 357 352 347 349 2 10 12
349 336 264 247 250 251 269 275 258 263 294 285 248 222 232 238 231 51 181 160 85 91 115 51 202 142 152 144 83 42 190 96 52 200 181 223 211 147 123 100 1 268 262 263 266 279 263 182 159 188 133 175 220 237 268 271 216 218 232 238 245 251 251 256 259 260 264 250 126 141 183 246 247 136 94 103 109 102 91 79 57 13 358 1 12 20 25 27
347 343 290 257 257 286 297 284 251 239 264 261 237 222 229 231 195 189 190 123 115 161 143 145 223 187 137 112 82 29 343 77 77 216 235 233 214 132 117 90 53 288 255 248 217 251 267 261 99 84 89 170 222 252 286 281 237 213 229 238 245 253 251 259 279 298 296 280 219 183 220 256 206 125 127 131 127 123 118 112 106 75 56 51 42 33 31 33
346 332 294 193 207 319 303 275 211 209 249 252 233 228 232 274 253 187 154 98 160 171 162 181 212 212 181 156 137 106 40 5 85 219 179 100 91 87 101 74 41 319 287 276 222 209 255 248 107 116 150 163 269 291 250 258 258 197 223 240 247 281 264 260 251 116 283 269 254 229 237 235 180 159 155 151 145 142 144 142 127 101 84 70 51 36 32 36
331 278 214 143 345 321 291 202 182 211 251 249 241 245 243 7 1 147 93 79 226 226 219 207 201 235 207 179 166 137 135 214 197 235 205 142 125 96 116 105 49 344 333 312 271 276 281 267 189 203 210 126 64 282 227 234 260 248 238 242 214 259 257 253 253 230 227 253 255 239 238 233 231 211 164 164 165 155 156 149 130 115 95 76 59 48 40 37
319 253 181 74 351 326 179 151 183 224 252 242 234 247 245 198 133 105 99 242 228 219 233 230 207 252 232 203 172 132 158 220 174 235 243 185 166 95 120 139 101 22 350 303 266 56 286 267 231 195 242 136 147 241 237 206 229 257 276 262 224 246 243 226 244 255 250 257 258 246 241 239 249 226 165 176 178 161 162 156 140 123 101 84 68 57 47 41
300 239 188 33 1 335 165 157 210 236 246 238 234 214 202 181 131 112 215 243 232 217 229 235 208 223 225 225 196 136 187 257 211 242 247 210 173 133 39 300 128 56 6 299 282 64 240 262 244 138 128 191 205 229 243 213 203 231 256 244 233 253 261 245 240 252 258 261 263 261 254 244 255 240 181 184 178 164 164 156 141 123 106 95 80 66 51 46
284 258 175 33 8 49 153 176 229 239 232 242 266 216 172 169 149 133 343 267 243 228 237 220 199 220 210 207 246 195 192 257 258 250 237 203 174 148 100 356 288 12 14 263 261 264 220 243 254 208 147 220 237 225 265 279 236 226 233 235 229 234 259 262 249 245 254 261 261 265 264 257 268 256 203 192 176 166 165 154 144 129 115 104 92 81 65 57
267 261 153 30 5 107 159 218 223 240 239 242 278 213 168 173 169 150 147 245 260 306 298 249 218 228 209 202 224 202 199 235 238 247 237 210 209 193 97 48 311 330 305 238 224 242 256 234 251 259 233 240 250 65 354 332 320 282 261 252 248 244 251 257 253 248 248 258 263 265 266 268 311 269 212 188 172 168 164 155 147 136 125 116 104 98 88 76
249 257 123 14 355 160 196 234 199 239 253 240 268 172 123 55 195 164 159 211 237 212 235 248 234 232 222 229 239 210 223 241 228 237 243 218 200 126 93 63 295 278 275 268 179 87 324 268 255 261 255 259 277 62 36 306 299 286 270 265 267 260 252 252 255 259 255 255 263 269 268 268 59 34 179 156 159 163 159 155 149 138 127 121 114 108 103 94
260 302 91 6 348 182 208 237 193 215 238 191 82 115 107 198 205 188 185 205 225 207 205 207 213 236 228 231 244 223 225 239 232 241 247 209 132 85 80 48 289 243 247 261 137 123 209 255 253 257 254 259 260 196 176 203 251 262 251 251 266 265 264 266 269 276 273 262 261 262 261 249 103 71 97 128 144 149 147 156 154 142 131 127 121 113 107 102
314 301 111 11 356 196 218 244 224 227 207 158 172 154 130 84 64 219 210 195 348 229 218 197 169 233 190 189 240 227 216 230 225 228 250 219 140 90 67 15 321 255 248 338 11 157 240 249 251 263 261 251 239 222 213 205 219 245 251 254 266 269 271 270 268 271 263 257 258 256 261 255 153 142 156 148 157 168 167 170 163 152 147 142 131 121 116 111
297 245 175 28 24 170 220 289 275 253 187 174 191 168 160 143 71 15 340 57 31 332 266 126 105 153 166 170 218 212 207 240 237 205 216 208 148 119 92 10 321 301 59 18 344 257 253 268 261 264 264 255 249 248 249 243 240 246 254 259 262 267 270 266 259 257 250 256 261 257 266 272 154 156 180 175 179 188 180 174 173 164 157 151 143 138 134 127
297 239 151 77 60 85 104 39 317 267 203 191 194 169 200 187 115 58 348 62 55 14 1 75 131 208 191 191 216 212 202 219 239 227 216 205 166 138 114 66 350 33 49 15 320 248 251 266 257 257 263 267 273 283 318 334 298 272 263 262 260 265 272 269 258 255 257 263 259 249 260 270 225 189 201 198 201 204 186 178 180 169 160 156 154 152 150 145
310 358 11 354 78 93 110 78 32 304 186 234 222 147 208 199 145 124 2 39 52 36 2 84 198 217 209 208 221 221 208 204 214 228 226 214 172 137 128 180 157 33 337 257 240 255 253 254 252 255 261 266 274 282 293 298 285 277 275 272 270 267 262 257 255 263 272 270 259 255 263 265 252 235 234 226 217 216 200 189 187 176 168 165 161 162 162 159
11 26 21 331 318 54 67 33 19 34 84 130 245 92 166 191 163 134 93 89 103 342 281 201 187 219 222 222 228 215 205 207 207 214 212 207 203 180 173 181 165 155 265 219 162 283 265 261 260 259 262 264 267 270 272 271 269 270 271 271 271 267 259 253 254 260 266 264 263 273 277 267 254 255 263 255 229 225 219 202 191 180 175 173 170 173 176 173
27 49 45 321 329 39 36 356 337 358 65 62 66 73 67 158 123 96 57 76 167 111 313 221 176 149 142 222 249 224 202 218 206 192 196 191 203 218 213 193 173 179 215 218 96 343 276 270 271 269 270 270 268 268 266 264 262 262 263 263 263 263 260 258 257 257 259 261 263 273 280 273 260 263 275 286 254 239 232 202 189 186 180 178 179 182 183 177
11 23 5 312 26 52 31 359 307 258 91 40 49 86 67 68 99 100 57 6 30 91 342 247 148 92 86 164 246 188 68 2 2 105 44 229 188 221 247 248 180 186 209 267 345 164 251 279 304 284 275 271 269 269 265 262 263 263 260 259 260 260 259 258 258 256 257 262 265 269 273 272 266 264 266 274 275 239 226 199 193 192 185 183 186 188 185 176
354 349 320 304 4 17 355 21 333 273 114 60 41 70 68 65 76 91 77 41 25 40 14 346 46 88 185 140 90 71 51 12 357 29 345 290 289 315 287 344 335 247 242 277 272 194 245 269 281 274 270 270 270 268 265 266 270 267 262 258 256 256 257 256 256 255 254 258 263 262 262 267 271 263 257 251 236 237 236 218 196 183 181 186 189 188 182 173
351 312 292 290 334 18 348 7 342 292 60 42 34 56 58 64 80 102 101 70 47 38 23 357 337 271 212 138 70 32 8 338 323 332 318 292 298 302 290 298 296 284 282 282 271 259 264 271 274 269 270 274 274 274 277 278 273 269 265 260 253 251 253 255 256 258 256 254 258 260 264 285 316 279 258 252 240 239 243 221 186 173 175 186 192 189 181 169